sat.trackr.live / text

‹ back to catalog

UNKNOWN

NORAD 87517

UNKNOWN UNKNOWN UNKNOWN

§ Identity

Operator
Country
Launch date
Launch site
Launch vehicle
Mass (kg)
RCS (m²)

External: N2YO · Heavens-Above

§ Orbital elements

Epoch: 2026-09-14T11:56:18.727872Z

Period
105.64 min
Inclination
65.8226°
Eccentricity
0.0660193
Mean motion
13.63075553 rev/d
Perigee alt
535.8 km
Apogee alt
1,513.3 km
Semi-major
7,402.7 km
B*
4.2941e-4
RAAN
279.8046°
Arg perigee
174.5491°
Mean anomaly
337.5763°
Rev number
63,047

§ Raw data

UNKNOWN1 87517U          26257.49743898  .00001431  00000+0  42941-3 0  99932 87517  65.8226 279.8046 0660193 174.5491 337.5763 13.63075553630473

JSON: /api/v1/satellites/87517 · /tle

For live sub-satellite position, see the globe view (requires WebGL).

§ Visibility from observer

Set your observer location to see the next 7 days of passes ≥ 10°. The values pass through the URL so the page stays shareable.

No JS? Fill the form by hand. The geolocation button needs JavaScript.